7 * 24
多渠道服务支持
STARLINK-11304是美国SpaceX星链星座的卫星,于2024年9月20日发射入轨,属于星链第二代低轨互联网卫星。它为全球提供高速宽带互联网服务,尤其覆盖偏远区域,助力太空互联网组网,星链持续扩容低轨星座,该卫星进一步提升了星座服务容量与覆盖能力。
美国
(US)
| 数据来源 | 国际轨道数据 |
| 星历时间: | 2026-09-11T21:03:26+0800 1天前 查看轨道信息 |
| 半长轴: | 6737.905km |
| 偏心率: | 0.0001173 |
| 轨道倾角: | 53.160° |
| 近地点辐角 | 84.286° |
| 升交点赤经 | 339.746° |
| 平近点角 | 275.829° |
| 近地点: | 358.977km |
| 远地点: | 360.559km |
| 周期: | 91.738分钟 |
| 每日圈数: | 15.696959 |